Weather Roundup
Issued by NWS

Home | Current Version | Previous Version | Text Only | Print | Product List | Glossary On
Versions: 1 2 3 4 5 6 7 8 9 10 11 12 13 14 15 16 17 18 19 20 21 22 23 24 25 26 27 28 29 30 31 32 33 34 35 36 37 38 39 40 41 42 43 44 45 46 47 48 49 50
000
NZUS93 KARX 091259
HRRWXR

CURRENT HOURLY OBSERVATIONS ACROSS
MUCH OF THE UPPER MISSISSIPPI VALLEY
NATIONAL WEATHER SERVICE LA CROSSE WI
800 AM CDT WED JUL 09 2014


...SOUTHEAST MINNESOTA...


CITY           SKY/WX    TMP DP  RH WIND       PRES   REMARKS
ROCHESTER      SUNNY     61  54  77 NW5       30.02R
ROCHESTER/MAYO FAIR      60  52  74 CALM      30.01R
WINONA         SUNNY     63  54  72 NW6       29.99R
AUSTIN         SUNNY     63  54  72 CALM      30.01R
ALBERT LEA     SUNNY     61  54  77 W5        30.02R
DODGE CENTER   SUNNY     63  55  77 N6        30.01R
PRESTON        SUNNY     61  56  83 NW5       30.01S
OWATONNA       SUNNY     61  55  82 CALM      30.01R
FARIBAULT      SUNNY     66  52  59 CALM      30.01R
$$

...ELSEWHERE IN MINNESOTA...


CITY           SKY/WX    TMP DP  RH WIND       PRES   REMARKS
MINNEAPOLIS    PTSUNNY   63  55  75 CALM      30.00R
INTNL FALLS    SUNNY     58  49  72 CALM      29.97R
DULUTH         MOSUNNY   58  51  78 NW8       29.97R
RED WING       SUNNY     63  54  72 CALM      29.98S
REDWOOD FALLS  SUNNY     62  52  69 CALM      30.00R
MANKATO        MOSUNNY   59  52  77 W5        30.01S
WORTHINGTON    SUNNY     61  55  82 W5        30.05R
FAIRMONT       MOSUNNY   63  48  59 W6        30.04R
$$

...SOUTHWEST WISCONSIN...


CITY           SKY/WX    TMP DP  RH WIND       PRES   REMARKS
LA CROSSE      SUNNY     65  55  70 N9        29.98R
PRAIRIE DU CHI SUNNY     62  54  74 NW6       29.98R
BOSCOBEL       SUNNY     65  57  75 VRB6      29.97R
LONE ROCK      NOT AVBL
PLATTEVILLE    SUNNY     61  56  85 NW7       29.97R
FORT MC COY    SUNNY     62  54  76 NW6       29.97R
VIROQUA        FAIR      60  58  93 NW8       29.98R
WIS DELLS      CLOUDY    61  56  83 NW8       29.94S
$$

...ELSEWHERE IN WISCONSIN...


CITY           SKY/WX    TMP DP  RH WIND       PRES   REMARKS
MILWAUKEE      PTSUNNY   62  56  80 W5        29.92R
MADISON        MOSUNNY   65  57  75 NW10      29.93R
GREEN BAY      PTSUNNY   61  55  81 W5        29.91R
EAU CLAIRE     NOT AVBL
BLACK RVR FLS  FAIR      61  56  84 NW6       29.96S
MEDFORD        SUNNY     55  51  86 NW10G16   29.94S
WAUSAU         PTSUNNY   57  51  80 NW12      29.92R
WIS RAPIDS     MOSUNNY   62  55  77 NW10      29.94S
MARSHFIELD     SUNNY     60  53  77 NW13      29.94R
RICE LAKE      SUNNY     58  51  79 W3        29.99R
$$

...NORTHEAST IOWA...


CITY           SKY/WX    TMP DP  RH WIND       PRES   REMARKS
WATERLOO       SUNNY     61  55  81 NW7       30.00S
DUBUQUE        SUNNY     63  56  78 NW10      29.98R
DECORAH          N/A    N/A N/A N/A MISG        N/A
MASON CITY     SUNNY     60  54  80 W7        30.04R
CHARLES CITY   SUNNY     57  54  88 NW5       30.02R
OELWEIN        SUNNY     59  59 100 NW7       30.01S
$$

...ELSEWHERE IN IOWA...


CITY           SKY/WX    TMP DP  RH WIND       PRES   REMARKS
DES MOINES     SUNNY     65  55  70 NW8       30.03R
IOWA CITY      SUNNY     66  56  70 NW9       30.00R
FORT DODGE     SUNNY     61  54  77 CALM      30.05S
MARSHALLTOWN   SUNNY     61  57  87 NW7       30.02R
CEDAR RAPIDS   SUNNY     62  55  77 N9        29.99R
$$

...NORTHERN ILLINOIS...


CITY           SKY/WX    TMP DP  RH WIND       PRES   REMARKS
CHICAGO-OHARE  MOSUNNY   69  55  60 N3        29.91R
DUPAGE         MOSUNNY   68  58  70 NW5       29.92R
CHICAGO-MIDWAY MOSUNNY   70  59  68 NW5       29.91R
MOLINE         SUNNY     68  56  65 NW8       29.96R
ROCKFORD       MOSUNNY   66  57  72 NW3       29.95R
STERLING       SUNNY     66  57  72 NW7       29.96R
PEORIA         SUNNY     70  60  70 NW6       29.96R
$$

NOTE: "FAIR" INDICATES FEW OR NO CLOUDS BELOW 12,000 FEET WITH NO
SIGNIFICANT WEATHER AND/OR OBSTRUCTIONS TO VISIBILITY. WIND
SPEEDS ARE IN MILES-PER-HOUR.



USA.gov is the U.S. government's official web portal to all federal, state and local government web resources and services.